Terminal Aerodrome Forecast
Issued by NWS Duluth, MN

Home | Current Version | Previous Version | Text Only | Print | Product List | Glossary On
Versions: 1 2 3 4 5 6 7 8 9 10 11 12 13 14 15 16 17 18 19 20 21 22 23 24 25
016
FTUS43 KDLH 220245 AAC
TAFDLH
TAF AMD
KDLH 220245Z 2203/2224 12007KT P6SM VCTS SCT025CB BKN060
      TEMPO 2203/2205 3SM -TSRA BR OVC025CB
     FM220500 04005KT P6SM VCSH BKN025
     FM220600 31004KT P6SM SCT070
     FM221400 31012G18KT P6SM SCT250
     FM221700 30015G24KT P6SM SCT250=

USA.gov is the U.S. government's official web portal to all federal, state and local government web resources and services.